Time,TemperatureF,DewpointF,PressureIn,WindDirection,WindDirectionDegrees,WindSpeedMPH,WindSpeedGustMPH,Humidity,HourlyPrecipIn,Conditions,Clouds,dailyrainin,SoftwareType,DateUTC
2013-05-15 00:01:00,36.0,32.2,30.05,NW,326,0.0,1.0,86,0.00,,,0.00,meteohub,2013-05-15 04:01:00,
2013-05-15 00:02:00,36.0,32.2,30.06,NW,326,0.0,1.0,86,0.00,,,0.00,meteohub,2013-05-15 04:02:00,
2013-05-15 00:07:00,36.0,32.7,30.05,NW,326,0.0,0.0,88,0.00,,,0.00,meteohub,2013-05-15 04:07:00,
2013-05-15 00:08:00,36.0,32.7,30.05,NW,326,0.0,0.0,88,0.00,,,0.00,meteohub,2013-05-15 04:08:00,
2013-05-15 00:11:00,35.8,32.4,30.05,NW,326,1.0,1.0,87,0.00,,,0.00,meteohub,2013-05-15 04:11:00,
2013-05-15 00:16:00,35.8,32.4,30.05,NW,326,0.0,1.0,87,0.00,,,0.00,meteohub,2013-05-15 04:16:00,
2013-05-15 00:21:00,35.4,32.2,30.05,NW,326,0.0,1.0,88,0.00,,,0.00,meteohub,2013-05-15 04:21:00,
2013-05-15 00:26:00,35.4,32.2,30.05,NW,326,0.0,1.0,88,0.00,,,0.00,meteohub,2013-05-15 04:26:00,
2013-05-15 00:31:00,35.4,32.2,30.06,NW,326,0.0,1.0,88,0.00,,,0.00,meteohub,2013-05-15 04:31:00,
2013-05-15 00:36:00,35.2,31.8,30.05,NW,326,0.0,1.0,87,0.00,,,0.00,meteohub,2013-05-15 04:36:00,
2013-05-15 00:41:00,35.1,31.8,30.06,NW,326,0.0,1.0,88,0.00,,,0.00,meteohub,2013-05-15 04:41:00,
2013-05-15 00:46:00,35.1,32.2,30.05,NW,326,0.0,1.0,89,0.00,,,0.00,meteohub,2013-05-15 04:46:00,
2013-05-15 00:52:00,34.9,31.6,30.06,NW,326,0.0,1.0,88,0.00,,,0.00,meteohub,2013-05-15 04:52:00,
2013-05-15 00:57:00,34.7,31.5,30.05,NW,326,0.0,1.0,88,0.00,,,0.00,meteohub,2013-05-15 04:57:00,
2013-05-15 01:02:00,34.5,31.3,30.05,NW,326,0.0,0.0,88,0.00,,,0.00,meteohub,2013-05-15 05:02:00,
2013-05-15 01:07:00,34.3,31.1,30.05,NW,326,0.0,0.0,88,0.00,,,0.00,meteohub,2013-05-15 05:07:00,
2013-05-15 01:12:00,34.3,31.5,30.05,NW,326,0.0,0.0,89,0.00,,,0.00,meteohub,2013-05-15 05:12:00,
2013-05-15 01:17:00,34.3,31.6,30.05,NW,326,0.0,0.0,90,0.00,,,0.00,meteohub,2013-05-15 05:17:00,
2013-05-15 01:22:00,34.2,31.3,30.05,NW,326,0.0,2.0,89,0.00,,,0.00,meteohub,2013-05-15 05:22:00,
2013-05-15 01:27:00,34.0,31.1,30.05,NW,326,0.0,2.0,89,0.00,,,0.00,meteohub,2013-05-15 05:27:00,
2013-05-15 01:32:00,33.8,30.9,30.05,NW,326,0.0,2.0,89,0.00,,,0.00,meteohub,2013-05-15 05:32:00,
2013-05-15 01:37:00,33.6,30.7,30.05,NW,326,0.0,0.0,89,0.00,,,0.00,meteohub,2013-05-15 05:37:00,
2013-05-15 01:42:00,33.4,30.6,30.05,NW,326,0.0,1.0,89,0.00,,,0.00,meteohub,2013-05-15 05:42:00,
2013-05-15 01:47:00,33.3,30.4,30.05,NW,326,0.0,1.0,89,0.00,,,0.00,meteohub,2013-05-15 05:47:00,
2013-05-15 01:52:00,33.1,30.2,30.05,NW,326,0.0,0.0,89,0.00,,,0.00,meteohub,2013-05-15 05:52:00,
2013-05-15 01:57:00,32.9,30.0,30.05,NW,326,0.0,1.0,89,0.00,,,0.00,meteohub,2013-05-15 05:57:00,
2013-05-15 02:02:00,32.7,30.2,30.05,NW,326,0.0,1.0,90,0.00,,,0.00,meteohub,2013-05-15 06:02:00,
2013-05-15 02:07:00,32.7,30.2,30.04,NW,326,0.0,1.0,90,0.00,,,0.00,meteohub,2013-05-15 06:07:00,
2013-05-15 02:12:00,32.5,30.2,30.05,NW,326,1.0,1.0,91,0.00,,,0.00,meteohub,2013-05-15 06:12:00,
2013-05-15 02:17:00,32.7,30.4,30.05,NW,326,0.0,2.0,91,0.00,,,0.00,meteohub,2013-05-15 06:17:00,
2013-05-15 02:22:00,32.5,30.2,30.05,NW,326,0.0,2.0,91,0.00,,,0.00,meteohub,2013-05-15 06:22:00,
2013-05-15 02:27:00,32.5,30.6,30.05,NW,326,1.0,2.0,92,0.00,,,0.00,meteohub,2013-05-15 06:27:00,
2013-05-15 02:32:00,32.7,30.9,30.04,NW,326,0.0,1.0,93,0.00,,,0.00,meteohub,2013-05-15 06:32:00,
2013-05-15 02:37:00,32.7,30.7,30.04,NW,326,0.0,1.0,92,0.00,,,0.00,meteohub,2013-05-15 06:37:00,
2013-05-15 02:42:00,32.7,30.7,30.04,NW,326,0.0,1.0,92,0.00,,,0.00,meteohub,2013-05-15 06:42:00,
2013-05-15 02:47:00,32.5,30.2,30.04,NW,326,0.0,0.0,91,0.00,,,0.00,meteohub,2013-05-15 06:47:00,
2013-05-15 02:52:00,32.5,30.6,30.04,NW,326,0.0,0.0,92,0.00,,,0.00,meteohub,2013-05-15 06:52:00,
2013-05-15 02:57:00,32.5,30.6,30.04,NW,326,0.0,0.0,92,0.00,,,0.00,meteohub,2013-05-15 06:57:00,
2013-05-15 03:02:00,32.4,30.4,30.04,NW,326,0.0,0.0,92,0.00,,,0.00,meteohub,2013-05-15 07:02:00,
2013-05-15 03:07:00,32.5,30.6,30.04,NW,326,0.0,0.0,92,0.00,,,0.00,meteohub,2013-05-15 07:07:00,
2013-05-15 03:12:00,32.5,30.7,30.04,NW,326,0.0,1.0,93,0.00,,,0.00,meteohub,2013-05-15 07:12:00,
2013-05-15 03:17:00,32.7,30.9,30.04,NW,326,1.0,2.0,93,0.00,,,0.00,meteohub,2013-05-15 07:17:00,
2013-05-15 03:22:00,32.7,30.9,30.04,NW,326,0.0,2.0,93,0.00,,,0.00,meteohub,2013-05-15 07:22:00,
2013-05-15 03:27:00,32.7,30.9,30.04,NW,326,1.0,2.0,93,0.00,,,0.00,meteohub,2013-05-15 07:27:00,
2013-05-15 03:32:00,32.7,30.9,30.04,NW,326,0.0,2.0,93,0.00,,,0.00,meteohub,2013-05-15 07:32:00,
2013-05-15 03:37:00,32.7,30.9,30.04,NW,326,0.0,2.0,93,0.00,,,0.00,meteohub,2013-05-15 07:37:00,
2013-05-15 03:42:00,32.5,30.6,30.04,NW,326,0.0,2.0,92,0.00,,,0.00,meteohub,2013-05-15 07:42:00,
2013-05-15 03:47:00,32.5,30.7,30.04,NW,326,0.0,1.0,93,0.00,,,0.00,meteohub,2013-05-15 07:47:00,
2013-05-15 03:52:00,32.5,30.7,30.04,NW,326,0.0,2.0,93,0.00,,,0.00,meteohub,2013-05-15 07:52:00,
2013-05-15 03:57:00,32.4,30.6,30.04,NW,326,0.0,2.0,93,0.00,,,0.00,meteohub,2013-05-15 07:57:00,
2013-05-15 04:02:00,32.2,30.2,30.04,NW,326,0.0,2.0,92,0.00,,,0.00,meteohub,2013-05-15 08:02:00,
2013-05-15 04:07:00,32.2,30.4,30.04,NW,326,0.0,1.0,93,0.00,,,0.00,meteohub,2013-05-15 08:07:00,
2013-05-15 04:12:00,32.2,30.4,30.04,NW,326,0.0,1.0,93,0.00,,,0.00,meteohub,2013-05-15 08:12:00,
2013-05-15 04:17:00,32.2,30.4,30.04,NW,326,0.0,1.0,93,0.00,,,0.00,meteohub,2013-05-15 08:17:00,
2013-05-15 04:22:00,32.2,30.4,30.04,NW,326,1.0,1.0,93,0.00,,,0.00,meteohub,2013-05-15 08:22:00,
2013-05-15 04:27:00,32.2,30.4,30.04,NW,326,0.0,2.0,93,0.00,,,0.00,meteohub,2013-05-15 08:27:00,
2013-05-15 04:33:00,32.2,30.4,30.04,NW,326,0.0,2.0,93,0.00,,,0.00,meteohub,2013-05-15 08:33:00,
2013-05-15 04:38:00,32.4,30.6,30.04,NW,326,0.0,2.0,93,0.00,,,0.00,meteohub,2013-05-15 08:38:00,
2013-05-15 04:43:00,32.4,30.6,30.04,NW,326,1.0,1.0,93,0.00,,,0.00,meteohub,2013-05-15 08:43:00,
2013-05-15 04:48:00,32.4,30.6,30.04,NW,326,0.0,2.0,93,0.00,,,0.00,meteohub,2013-05-15 08:48:00,
2013-05-15 04:53:00,32.4,30.6,30.04,NW,326,0.0,2.0,93,0.00,,,0.00,meteohub,2013-05-15 08:53:00,
2013-05-15 04:58:00,32.4,30.6,30.04,NW,326,0.0,2.0,93,0.00,,,0.00,meteohub,2013-05-15 08:58:00,
2013-05-15 05:03:00,32.4,30.7,30.04,NW,326,0.0,2.0,94,0.00,,,0.00,meteohub,2013-05-15 09:03:00,
2013-05-15 05:08:00,32.4,30.6,30.04,NW,326,0.0,2.0,93,0.00,,,0.00,meteohub,2013-05-15 09:08:00,
2013-05-15 05:13:00,32.2,30.4,30.04,NW,326,0.0,1.0,93,0.00,,,0.00,meteohub,2013-05-15 09:13:00,
2013-05-15 05:18:00,32.0,30.2,30.04,NW,326,0.0,1.0,93,0.00,,,0.00,meteohub,2013-05-15 09:18:00,
2013-05-15 05:23:00,32.0,30.2,30.04,NW,326,0.0,0.0,93,0.00,,,0.00,meteohub,2013-05-15 09:23:00,
2013-05-15 05:28:00,32.0,30.2,30.04,NW,326,0.0,0.0,93,0.00,,,0.00,meteohub,2013-05-15 09:28:00,
2013-05-15 05:33:00,32.0,30.2,30.04,NW,326,0.0,0.0,93,0.00,,,0.00,meteohub,2013-05-15 09:33:00,
2013-05-15 05:38:00,31.8,30.0,30.04,NW,326,0.0,1.0,93,0.00,,,0.00,meteohub,2013-05-15 09:38:00,
2013-05-15 05:43:00,31.8,30.0,30.04,NW,326,1.0,1.0,93,0.00,,,0.00,meteohub,2013-05-15 09:43:00,
2013-05-15 05:48:00,32.2,30.6,30.04,NW,326,0.0,1.0,94,0.00,,,0.00,meteohub,2013-05-15 09:48:00,
2013-05-15 05:53:00,32.2,30.4,30.04,NW,326,0.0,2.0,93,0.00,,,0.00,meteohub,2013-05-15 09:53:00,
2013-05-15 05:58:00,32.2,30.4,30.04,NW,326,0.0,2.0,93,0.00,,,0.00,meteohub,2013-05-15 09:58:00,
2013-05-15 06:03:00,32.2,30.4,30.04,NW,326,2.0,2.0,93,0.00,,,0.00,meteohub,2013-05-15 10:03:00,
2013-05-15 06:08:00,32.2,30.6,30.04,NW,326,1.0,2.0,94,0.00,,,0.00,meteohub,2013-05-15 10:08:00,
2013-05-15 06:13:00,32.2,30.6,30.04,NW,326,2.0,2.0,94,0.00,,,0.00,meteohub,2013-05-15 10:13:00,
2013-05-15 06:18:00,32.4,30.7,30.03,NW,326,1.0,2.0,94,0.00,,,0.00,meteohub,2013-05-15 10:18:00,
2013-05-15 06:23:00,32.4,30.7,30.03,NW,326,0.0,2.0,94,0.00,,,0.00,meteohub,2013-05-15 10:23:00,
2013-05-15 06:28:00,32.5,30.9,30.03,NW,326,0.0,2.0,94,0.00,,,0.00,meteohub,2013-05-15 10:28:00,
2013-05-15 06:33:00,32.5,30.9,30.03,NW,326,0.0,2.0,94,0.00,,,0.00,meteohub,2013-05-15 10:33:00,
2013-05-15 06:38:00,32.9,31.3,30.04,NW,326,0.0,2.0,94,0.00,,,0.00,meteohub,2013-05-15 10:38:00,
2013-05-15 06:44:00,33.1,31.5,30.03,NW,326,0.0,1.0,94,0.00,,,0.00,meteohub,2013-05-15 10:44:00,
2013-05-15 06:49:00,33.3,31.6,30.03,NW,326,0.0,1.0,94,0.00,,,0.00,meteohub,2013-05-15 10:49:00,
2013-05-15 06:54:00,33.4,31.8,30.03,NW,326,0.0,1.0,94,0.00,,,0.00,meteohub,2013-05-15 10:54:00,
2013-05-15 06:59:00,33.4,31.6,30.04,NW,326,0.0,1.0,93,0.00,,,0.00,meteohub,2013-05-15 10:59:00,
2013-05-15 07:04:00,33.6,32.0,30.03,NW,326,0.0,1.0,94,0.00,,,0.00,meteohub,2013-05-15 11:04:00,
2013-05-15 07:09:00,34.0,32.2,30.03,NW,326,0.0,1.0,93,0.00,,,0.00,meteohub,2013-05-15 11:09:00,
2013-05-15 07:15:00,34.2,32.0,30.03,NW,326,0.0,1.0,92,0.00,,,0.00,meteohub,2013-05-15 11:15:00,
2013-05-15 07:20:00,34.3,32.2,30.03,NW,326,0.0,1.0,92,0.00,,,0.00,meteohub,2013-05-15 11:20:00,
2013-05-15 07:25:00,34.5,32.4,30.02,NW,326,0.0,1.0,92,0.00,,,0.00,meteohub,2013-05-15 11:25:00,
2013-05-15 07:31:00,34.9,32.7,30.02,NW,326,0.0,1.0,92,0.00,,,0.00,meteohub,2013-05-15 11:31:00,
2013-05-15 07:36:00,35.2,32.9,30.02,NNW,329,0.0,1.0,91,0.00,,,0.00,meteohub,2013-05-15 11:36:00,
2013-05-15 07:41:00,35.8,33.1,30.01,NNW,332,0.0,2.0,90,0.00,,,0.00,meteohub,2013-05-15 11:41:00,
2013-05-15 07:47:00,36.1,33.3,30.01,East,101,0.0,2.0,89,0.00,,,0.00,meteohub,2013-05-15 11:47:00,
2013-05-15 07:52:00,36.7,33.8,30.01,East,101,0.0,2.0,89,0.00,,,0.00,meteohub,2013-05-15 11:52:00,
2013-05-15 07:57:00,37.0,33.6,30.01,East,101,0.0,2.0,87,0.00,,,0.00,meteohub,2013-05-15 11:57:00,
2013-05-15 08:02:00,37.8,34.2,30.00,East,101,0.0,2.0,87,0.00,,,0.00,meteohub,2013-05-15 12:02:00,
2013-05-15 08:07:00,38.7,34.5,30.00,East,101,0.0,2.0,85,0.00,,,0.00,meteohub,2013-05-15 12:07:00,
2013-05-15 08:12:00,39.6,35.1,30.00,ESE,103,1.0,2.0,84,0.00,,,0.00,meteohub,2013-05-15 12:12:00,
2013-05-15 08:17:00,39.9,34.9,30.00,ESE,103,0.0,2.0,82,0.00,,,0.00,meteohub,2013-05-15 12:17:00,
2013-05-15 08:22:00,40.5,35.8,29.99,ESE,103,0.0,2.0,83,0.00,,,0.00,meteohub,2013-05-15 12:22:00,
2013-05-15 08:28:00,41.0,36.3,29.99,ESE,103,1.0,2.0,83,0.00,,,0.00,meteohub,2013-05-15 12:28:00,
2013-05-15 08:33:00,42.1,36.7,29.99,ESE,103,0.0,1.0,81,0.00,,,0.00,meteohub,2013-05-15 12:33:00,
2013-05-15 08:38:00,43.2,36.7,29.98,ESE,103,0.0,1.0,78,0.00,,,0.00,meteohub,2013-05-15 12:38:00,
2013-05-15 08:43:00,44.2,37.8,29.98,ESE,103,0.0,1.0,78,0.00,,,0.00,meteohub,2013-05-15 12:43:00,
2013-05-15 08:48:00,45.1,37.8,29.98,ESE,103,0.0,2.0,75,0.00,,,0.00,meteohub,2013-05-15 12:48:00,
2013-05-15 08:53:00,45.9,37.4,29.97,ESE,103,0.0,2.0,72,0.00,,,0.00,meteohub,2013-05-15 12:53:00,
2013-05-15 08:59:00,46.6,37.8,29.97,ESE,103,0.0,2.0,71,0.00,,,0.00,meteohub,2013-05-15 12:59:00,
2013-05-15 09:05:00,47.1,37.4,29.97,ESE,103,0.0,2.0,69,0.00,,,0.00,meteohub,2013-05-15 13:05:00,
2013-05-15 09:10:00,47.5,37.8,29.96,ESE,103,0.0,2.0,69,0.00,,,0.00,meteohub,2013-05-15 13:10:00,
2013-05-15 09:15:00,47.8,38.5,29.96,ESE,103,0.0,2.0,70,0.00,,,0.00,meteohub,2013-05-15 13:15:00,
2013-05-15 09:21:00,48.6,38.1,29.95,ESE,103,0.0,2.0,67,0.00,,,0.00,meteohub,2013-05-15 13:21:00,
2013-05-15 09:26:00,49.3,37.9,29.94,ESE,103,0.0,2.0,65,0.00,,,0.00,meteohub,2013-05-15 13:26:00,
2013-05-15 09:31:00,50.2,37.6,29.94,ESE,103,0.0,2.0,62,0.00,,,0.00,meteohub,2013-05-15 13:31:00,
2013-05-15 09:36:00,50.9,37.9,29.94,ESE,114,0.0,1.0,61,0.00,,,0.00,meteohub,2013-05-15 13:36:00,
2013-05-15 09:41:00,52.0,37.2,29.94,ESE,114,1.0,5.0,57,0.00,,,0.00,meteohub,2013-05-15 13:41:00,
2013-05-15 09:46:00,52.9,36.7,29.94,East,87,2.0,5.0,54,0.00,,,0.00,meteohub,2013-05-15 13:46:00,
2013-05-15 09:51:00,53.8,36.5,29.94,ESE,102,1.0,6.0,52,0.00,,,0.00,meteohub,2013-05-15 13:51:00,
2013-05-15 09:57:00,54.7,34.9,29.94,East,97,3.0,6.0,47,0.00,,,0.00,meteohub,2013-05-15 13:57:00,
2013-05-15 10:02:00,55.2,35.4,29.94,SE,128,6.0,8.0,47,0.00,,,0.00,meteohub,2013-05-15 14:02:00,
2013-05-15 10:07:00,55.8,35.2,29.93,SE,133,5.0,8.0,46,0.00,,,0.00,meteohub,2013-05-15 14:07:00,
2013-05-15 10:13:00,56.1,36.7,29.93,ESE,114,2.0,8.0,48,0.00,,,0.00,meteohub,2013-05-15 14:13:00,
2013-05-15 10:18:00,56.3,35.2,29.93,ESE,123,3.0,9.0,45,0.00,,,0.00,meteohub,2013-05-15 14:18:00,
2013-05-15 10:23:00,56.5,37.0,29.93,ESE,118,5.0,9.0,48,0.00,,,0.00,meteohub,2013-05-15 14:23:00,
2013-05-15 10:29:00,56.7,36.7,29.92,ESE,114,2.0,9.0,47,0.00,,,0.00,meteohub,2013-05-15 14:29:00,
2013-05-15 10:34:00,56.8,36.9,29.92,East,89,3.0,8.0,47,0.00,,,0.00,meteohub,2013-05-15 14:34:00,
2013-05-15 10:39:00,56.8,35.8,29.92,SE,141,3.0,8.0,45,0.00,,,0.00,meteohub,2013-05-15 14:39:00,
2013-05-15 10:44:00,57.0,36.0,29.92,East,99,1.0,8.0,45,0.00,,,0.00,meteohub,2013-05-15 14:44:00,
2013-05-15 10:50:00,57.2,36.7,29.92,ESE,123,5.0,7.0,46,0.00,,,0.00,meteohub,2013-05-15 14:50:00,
2013-05-15 10:56:00,57.6,36.3,29.91,East,89,1.0,7.0,45,0.00,,,0.00,meteohub,2013-05-15 14:56:00,
2013-05-15 11:01:00,57.7,37.0,29.91,ESE,110,3.0,6.0,46,0.00,,,0.00,meteohub,2013-05-15 15:01:00,
2013-05-15 11:06:00,57.9,37.2,29.91,ESE,116,2.0,7.0,46,0.00,,,0.00,meteohub,2013-05-15 15:06:00,
2013-05-15 11:12:00,58.5,36.7,29.90,SE,125,1.0,9.0,44,0.00,,,0.00,meteohub,2013-05-15 15:12:00,
2013-05-15 11:17:00,59.0,37.0,29.90,ESE,104,5.0,9.0,44,0.00,,,0.00,meteohub,2013-05-15 15:17:00,
2013-05-15 11:22:00,59.4,37.4,29.90,SE,127,3.0,8.0,44,0.00,,,0.00,meteohub,2013-05-15 15:22:00,
2013-05-15 11:27:00,60.1,35.6,29.89,East,99,3.0,8.0,40,0.00,,,0.00,meteohub,2013-05-15 15:27:00,
2013-05-15 11:32:00,60.1,36.3,29.89,ESE,109,1.0,9.0,41,0.00,,,0.00,meteohub,2013-05-15 15:32:00,
2013-05-15 11:38:00,60.3,37.0,29.88,SE,145,3.0,10.0,42,0.00,,,0.00,meteohub,2013-05-15 15:38:00,
2013-05-15 11:43:00,60.6,35.6,29.88,ESE,122,3.0,10.0,39,0.00,,,0.00,meteohub,2013-05-15 15:43:00,
2013-05-15 11:48:00,60.8,35.6,29.88,ESE,114,6.0,15.0,39,0.00,,,0.00,meteohub,2013-05-15 15:48:00,
2013-05-15 11:54:00,61.0,36.5,29.87,ESE,118,8.0,15.0,40,0.00,,,0.00,meteohub,2013-05-15 15:54:00,
2013-05-15 11:59:00,61.0,37.0,29.87,East,98,4.0,15.0,41,0.00,,,0.00,meteohub,2013-05-15 15:59:00,
2013-05-15 12:04:00,61.2,37.2,29.86,ESE,121,3.0,10.0,41,0.00,,,0.00,meteohub,2013-05-15 16:04:00,
2013-05-15 12:10:00,61.0,36.5,29.87,ESE,108,2.0,10.0,40,0.00,,,0.00,meteohub,2013-05-15 16:10:00,
2013-05-15 12:15:00,60.8,36.9,29.86,East,101,1.0,10.0,41,0.00,,,0.00,meteohub,2013-05-15 16:15:00,
2013-05-15 12:20:00,60.6,37.4,29.86,East,93,4.0,10.0,42,0.00,,,0.00,meteohub,2013-05-15 16:20:00,
2013-05-15 12:25:00,60.4,36.7,29.86,ESE,116,3.0,10.0,41,0.00,,,0.00,meteohub,2013-05-15 16:25:00,
2013-05-15 12:30:00,60.3,37.0,29.86,ESE,110,3.0,9.0,42,0.00,,,0.00,meteohub,2013-05-15 16:30:00,
2013-05-15 12:36:00,60.1,38.7,29.86,ESE,119,3.0,9.0,45,0.00,,,0.00,meteohub,2013-05-15 16:36:00,
2013-05-15 12:41:00,60.1,37.6,29.86,SE,132,2.0,9.0,43,0.00,,,0.00,meteohub,2013-05-15 16:41:00,
2013-05-15 12:46:00,60.1,37.6,29.86,ESE,119,10.0,10.0,43,0.00,,,0.00,meteohub,2013-05-15 16:46:00,
2013-05-15 12:51:00,59.7,38.3,29.85,SE,129,7.0,13.0,45,0.00,,,0.00,meteohub,2013-05-15 16:51:00,
2013-05-15 12:57:00,59.7,38.3,29.84,SE,130,6.0,13.0,45,0.00,,,0.00,meteohub,2013-05-15 16:57:00,
2013-05-15 13:02:00,59.4,37.9,29.83,ESE,117,1.0,13.0,45,0.00,,,0.00,meteohub,2013-05-15 17:02:00,
2013-05-15 13:07:00,59.2,38.5,29.83,SE,130,5.0,8.0,46,0.00,,,0.00,meteohub,2013-05-15 17:07:00,
2013-05-15 13:12:00,59.0,40.5,29.82,SE,134,3.0,7.0,50,0.00,,,0.00,meteohub,2013-05-15 17:12:00,
2013-05-15 13:17:00,58.8,40.3,29.81,ESE,117,0.0,8.0,50,0.00,,,0.00,meteohub,2013-05-15 17:17:00,
2013-05-15 13:22:00,59.0,39.9,29.81,ESE,119,1.0,8.0,49,0.00,,,0.00,meteohub,2013-05-15 17:22:00,
2013-05-15 13:27:00,59.0,39.9,29.80,East,98,3.0,10.0,49,0.00,,,0.00,meteohub,2013-05-15 17:27:00,
2013-05-15 13:33:00,59.2,41.0,29.81,ESE,112,1.0,14.0,51,0.00,,,0.00,meteohub,2013-05-15 17:33:00,
2013-05-15 13:38:00,59.4,40.3,29.81,East,97,3.0,14.0,49,0.00,,,0.00,meteohub,2013-05-15 17:38:00,
2013-05-15 13:44:00,58.8,40.8,29.80,ESE,114,6.0,10.0,51,0.00,,,0.00,meteohub,2013-05-15 17:44:00,
2013-05-15 13:49:00,58.5,40.8,29.78,East,89,4.0,11.0,52,0.00,,,0.00,meteohub,2013-05-15 17:49:00,
2013-05-15 13:54:00,58.1,42.4,29.78,SE,137,3.0,11.0,56,0.00,,,0.00,meteohub,2013-05-15 17:54:00,
2013-05-15 13:59:00,57.6,43.7,29.78,ESE,120,6.0,11.0,60,0.00,,,0.00,meteohub,2013-05-15 17:59:00,
2013-05-15 14:04:00,57.0,44.1,29.80,ESE,110,3.0,11.0,62,0.00,,,0.00,meteohub,2013-05-15 18:04:00,
2013-05-15 14:10:00,56.7,44.6,29.79,East,101,4.0,11.0,64,0.00,,,0.00,meteohub,2013-05-15 18:10:00,
2013-05-15 14:15:00,56.5,44.4,29.78,East,86,4.0,8.0,64,0.00,,,0.00,meteohub,2013-05-15 18:15:00,
2013-05-15 14:20:00,56.5,44.8,29.77,ESE,110,2.0,8.0,65,0.00,,,0.00,meteohub,2013-05-15 18:20:00,
2013-05-15 14:26:00,56.5,44.4,29.75,ESE,118,1.0,10.0,64,0.00,,,0.00,meteohub,2013-05-15 18:26:00,
2013-05-15 14:32:00,56.1,43.7,29.76,SE,126,0.0,10.0,63,0.00,,,0.00,meteohub,2013-05-15 18:32:00,
2013-05-15 14:37:00,55.9,42.3,29.79,SE,143,0.0,10.0,60,0.00,,,0.00,meteohub,2013-05-15 18:37:00,
2013-05-15 14:42:00,55.8,43.7,29.80,East,95,0.0,8.0,64,0.00,,,0.00,meteohub,2013-05-15 18:42:00,
2013-05-15 14:47:00,55.6,41.9,29.81,SE,145,2.0,8.0,60,0.00,,,0.00,meteohub,2013-05-15 18:47:00,
2013-05-15 14:52:00,55.0,43.5,29.80,ESE,112,2.0,6.0,65,0.00,,,0.00,meteohub,2013-05-15 18:52:00,
2013-05-15 14:57:00,54.3,45.9,29.77,ESE,119,3.0,7.0,73,0.01,,,0.01,meteohub,2013-05-15 18:57:00,
2013-05-15 15:03:00,53.1,46.0,29.79,ESE,123,0.0,7.0,77,0.02,,,0.02,meteohub,2013-05-15 19:03:00,
2013-05-15 15:08:00,52.2,46.6,29.79,WSW,239,1.0,7.0,81,0.04,,,0.04,meteohub,2013-05-15 19:08:00,
2013-05-15 15:13:00,51.4,46.8,29.78,WSW,241,1.0,7.0,84,0.05,,,0.05,meteohub,2013-05-15 19:13:00,
2013-05-15 15:19:00,50.7,46.8,29.78,WSW,243,0.0,3.0,86,0.06,,,0.06,meteohub,2013-05-15 19:19:00,
2013-05-15 15:24:00,50.4,46.9,29.77,SE,141,0.0,3.0,88,0.08,,,0.08,meteohub,2013-05-15 19:24:00,
2013-05-15 15:30:00,50.5,47.5,29.75,ESE,114,1.0,2.0,89,0.08,,,0.08,meteohub,2013-05-15 19:30:00,
2013-05-15 15:35:00,50.5,47.5,29.76,ESE,111,1.0,3.0,89,0.08,,,0.09,meteohub,2013-05-15 19:35:00,
2013-05-15 15:40:00,50.5,47.1,29.76,ESE,113,0.0,6.0,88,0.09,,,0.09,meteohub,2013-05-15 19:40:00,
2013-05-15 15:45:00,50.4,46.9,29.77,ESE,113,0.0,6.0,88,0.09,,,0.09,meteohub,2013-05-15 19:45:00,
2013-05-15 15:50:00,50.4,47.3,29.77,ESE,117,0.0,3.0,89,0.09,,,0.09,meteohub,2013-05-15 19:50:00,
2013-05-15 15:55:00,50.2,47.3,29.77,ESE,117,0.0,3.0,90,0.08,,,0.09,meteohub,2013-05-15 19:55:00,
2013-05-15 16:00:00,50.2,47.3,29.75,ESE,117,0.0,3.0,90,0.06,,,0.09,meteohub,2013-05-15 20:00:00,
2013-05-15 16:06:00,50.0,47.1,29.74,ESE,121,1.0,3.0,90,0.05,,,0.09,meteohub,2013-05-15 20:06:00,
2013-05-15 16:12:00,49.8,46.8,29.72,ESE,116,1.0,5.0,89,0.04,,,0.09,meteohub,2013-05-15 20:12:00,
2013-05-15 16:17:00,50.0,47.1,29.71,ESE,116,0.0,6.0,90,0.03,,,0.09,meteohub,2013-05-15 20:17:00,
2013-05-15 16:22:00,50.2,47.3,29.71,SE,126,2.0,6.0,90,0.01,,,0.09,meteohub,2013-05-15 20:22:00,
2013-05-15 16:27:00,50.4,47.5,29.70,SE,136,3.0,7.0,90,0.01,,,0.09,meteohub,2013-05-15 20:27:00,
2013-05-15 16:32:00,50.5,47.5,29.69,SSE,155,8.0,8.0,89,0.01,,,0.09,meteohub,2013-05-15 20:32:00,
2013-05-15 16:37:00,50.7,47.7,29.68,ESE,105,3.0,9.0,89,0.00,,,0.09,meteohub,2013-05-15 20:37:00,
2013-05-15 16:43:00,51.1,47.3,29.68,ESE,118,7.0,12.0,87,0.00,,,0.09,meteohub,2013-05-15 20:43:00,
2013-05-15 16:48:00,51.4,48.0,29.67,ESE,122,0.0,12.0,88,0.00,,,0.09,meteohub,2013-05-15 20:48:00,
2013-05-15 16:53:00,52.0,48.2,29.68,ESE,120,3.0,10.0,87,0.00,,,0.09,meteohub,2013-05-15 20:53:00,
2013-05-15 16:59:00,52.2,48.0,29.69,ESE,112,7.0,11.0,86,0.00,,,0.09,meteohub,2013-05-15 20:59:00,
2013-05-15 17:04:00,52.0,47.8,29.69,SSE,154,2.0,11.0,86,0.00,,,0.09,meteohub,2013-05-15 21:04:00,
2013-05-15 17:11:00,52.0,47.7,29.70,ESE,110,2.0,10.0,85,0.00,,,0.09,meteohub,2013-05-15 21:11:00,
2013-05-15 17:17:00,51.8,47.7,29.70,SE,129,0.0,7.0,86,0.00,,,0.09,meteohub,2013-05-15 21:17:00,
2013-05-15 17:22:00,51.6,47.8,29.70,SE,129,0.0,7.0,87,0.00,,,0.09,meteohub,2013-05-15 21:22:00,
2013-05-15 17:27:00,51.4,48.0,29.70,North,349,0.0,3.0,88,0.00,,,0.09,meteohub,2013-05-15 21:27:00,
2013-05-15 17:32:00,51.4,48.6,29.72,NNW,339,2.0,3.0,90,0.00,,,0.09,meteohub,2013-05-15 21:32:00,
2013-05-15 17:36:00,51.3,48.4,29.71,NNW,339,0.0,4.0,90,0.00,,,0.09,meteohub,2013-05-15 21:36:00,
2013-05-15 17:37:00,51.3,48.4,29.71,NNW,339,0.0,4.0,90,0.00,,,0.09,meteohub,2013-05-15 21:37:00,
2013-05-15 17:47:00,51.1,48.6,29.69,NNW,339,2.0,4.0,91,0.00,,,0.09,meteohub,2013-05-15 21:47:00,
2013-05-15 17:52:00,50.7,48.2,29.68,NNW,339,0.0,2.0,91,0.00,,,0.09,meteohub,2013-05-15 21:52:00,
2013-05-15 17:57:00,50.7,48.6,29.68,NNW,339,2.0,2.0,92,0.00,,,0.09,meteohub,2013-05-15 21:57:00,
2013-05-15 18:02:00,50.7,48.6,29.67,NNE,27,1.0,3.0,92,0.00,,,0.09,meteohub,2013-05-15 22:02:00,
2013-05-15 18:07:00,51.1,48.6,29.67,ESE,109,1.0,5.0,91,0.00,,,0.09,meteohub,2013-05-15 22:07:00,
2013-05-15 18:12:00,51.4,48.6,29.68,NNW,330,0.0,5.0,90,0.00,,,0.09,meteohub,2013-05-15 22:12:00,
2013-05-15 18:17:00,51.6,48.6,29.67,SE,130,1.0,5.0,89,0.00,,,0.09,meteohub,2013-05-15 22:17:00,
2013-05-15 18:23:00,52.0,48.6,29.67,ESE,117,2.0,4.0,88,0.00,,,0.09,meteohub,2013-05-15 22:23:00,
2013-05-15 18:28:00,52.2,48.7,29.67,ESE,108,1.0,3.0,88,0.00,,,0.09,meteohub,2013-05-15 22:28:00,
2013-05-15 18:34:00,52.3,48.6,29.67,ESE,119,3.0,8.0,87,0.00,,,0.09,meteohub,2013-05-15 22:34:00,
2013-05-15 18:39:00,52.2,48.4,29.66,ESE,119,0.0,8.0,87,0.00,,,0.09,meteohub,2013-05-15 22:39:00,
2013-05-15 18:45:00,52.2,48.4,29.66,ESE,120,1.0,8.0,87,0.00,,,0.09,meteohub,2013-05-15 22:45:00,
2013-05-15 18:50:00,52.2,48.4,29.66,ESE,117,3.0,7.0,87,0.00,,,0.09,meteohub,2013-05-15 22:50:00,
2013-05-15 18:55:00,52.2,48.7,29.66,ESE,120,0.0,6.0,88,0.00,,,0.09,meteohub,2013-05-15 22:55:00,
2013-05-15 19:00:00,52.2,48.7,29.66,SE,128,2.0,6.0,88,0.00,,,0.09,meteohub,2013-05-15 23:00:00,
2013-05-15 19:06:00,52.2,48.7,29.66,SE,125,0.0,6.0,88,0.00,,,0.09,meteohub,2013-05-15 23:06:00,
2013-05-15 19:11:00,52.2,48.7,29.66,ESE,116,0.0,5.0,88,0.00,,,0.09,meteohub,2013-05-15 23:11:00,
2013-05-15 19:16:00,52.2,48.7,29.65,SE,127,2.0,5.0,88,0.00,,,0.09,meteohub,2013-05-15 23:16:00,
2013-05-15 19:21:00,52.2,48.7,29.65,SE,125,0.0,5.0,88,0.00,,,0.09,meteohub,2013-05-15 23:21:00,
2013-05-15 19:26:00,52.2,48.7,29.65,SE,124,3.0,5.0,88,0.00,,,0.09,meteohub,2013-05-15 23:26:00,
2013-05-15 19:32:00,52.2,48.7,29.65,ESE,119,0.0,5.0,88,0.00,,,0.09,meteohub,2013-05-15 23:32:00,
2013-05-15 19:37:00,52.2,48.7,29.65,SE,141,2.0,5.0,88,0.00,,,0.09,meteohub,2013-05-15 23:37:00,
2013-05-15 19:42:00,52.2,48.7,29.65,SSE,150,0.0,7.0,88,0.00,,,0.09,meteohub,2013-05-15 23:42:00,
2013-05-15 19:48:00,52.2,48.7,29.65,East,87,0.0,9.0,88,0.00,,,0.09,meteohub,2013-05-15 23:48:00,
2013-05-15 19:53:00,52.0,48.9,29.64,ESE,119,2.0,9.0,89,0.00,,,0.09,meteohub,2013-05-15 23:53:00,
2013-05-15 19:59:00,52.0,49.1,29.65,NNW,345,2.0,5.0,90,0.00,,,0.09,meteohub,2013-05-15 23:59:00,
2013-05-15 20:04:00,52.0,49.1,29.64,North,351,0.0,4.0,90,0.00,,,0.09,meteohub,2013-05-16 00:04:00,
2013-05-15 20:10:00,51.8,49.3,29.65,North,351,1.0,3.0,91,0.00,,,0.00,meteohub,2013-05-16 00:10:00,
2013-05-15 20:15:00,51.8,48.9,29.64,East,91,0.0,3.0,90,0.00,,,0.00,meteohub,2013-05-16 00:15:00,
2013-05-15 20:21:00,51.6,48.7,29.65,East,91,1.0,3.0,90,0.00,,,0.00,meteohub,2013-05-16 00:21:00,
2013-05-15 20:26:00,51.4,48.9,29.65,South,185,0.0,2.0,91,0.00,,,0.00,meteohub,2013-05-16 00:26:00,
2013-05-15 20:31:00,51.4,49.3,29.65,West,278,2.0,2.0,92,0.00,,,0.00,meteohub,2013-05-16 00:31:00,
2013-05-15 20:36:00,51.3,49.1,29.65,West,278,0.0,3.0,92,0.00,,,0.00,meteohub,2013-05-16 00:36:00,
2013-05-15 20:41:00,51.1,48.9,29.65,West,278,0.0,3.0,92,0.00,,,0.00,meteohub,2013-05-16 00:41:00,
2013-05-15 20:47:00,51.1,48.9,29.66,West,278,0.0,2.0,92,0.00,,,0.00,meteohub,2013-05-16 00:47:00,
2013-05-15 20:52:00,50.9,48.9,29.66,West,278,1.0,2.0,93,0.00,,,0.00,meteohub,2013-05-16 00:52:00,
2013-05-15 20:58:00,50.9,48.9,29.66,WSW,241,0.0,2.0,93,0.00,,,0.00,meteohub,2013-05-16 00:58:00,
2013-05-15 21:03:00,50.9,48.9,29.67,WNW,289,1.0,2.0,93,0.00,,,0.00,meteohub,2013-05-16 01:03:00,
2013-05-15 21:08:00,51.1,49.1,29.67,WNW,290,0.0,3.0,93,0.00,,,0.00,meteohub,2013-05-16 01:08:00,
2013-05-15 21:14:00,50.9,48.9,29.67,WNW,290,0.0,3.0,93,0.00,,,0.00,meteohub,2013-05-16 01:14:00,
2013-05-15 21:19:00,50.9,48.9,29.68,WNW,290,0.0,3.0,93,0.00,,,0.00,meteohub,2013-05-16 01:19:00,
2013-05-15 21:24:00,51.1,49.1,29.68,WNW,290,1.0,2.0,93,0.00,,,0.00,meteohub,2013-05-16 01:24:00,
2013-05-15 21:30:00,51.1,49.5,29.68,WNW,290,0.0,1.0,94,0.00,,,0.00,meteohub,2013-05-16 01:30:00,
2013-05-15 21:35:00,51.1,49.1,29.68,WNW,290,0.0,1.0,93,0.00,,,0.00,meteohub,2013-05-16 01:35:00,
2013-05-15 21:40:00,51.1,49.5,29.68,WNW,290,0.0,1.0,94,0.00,,,0.00,meteohub,2013-05-16 01:40:00,
2013-05-15 21:46:00,51.1,49.5,29.68,WNW,290,0.0,1.0,94,0.00,,,0.00,meteohub,2013-05-16 01:46:00,
2013-05-15 21:51:00,51.1,49.5,29.68,WNW,290,0.0,1.0,94,0.00,,,0.00,meteohub,2013-05-16 01:51:00,
2013-05-15 21:57:00,51.1,49.5,29.68,WNW,290,0.0,1.0,94,0.00,,,0.00,meteohub,2013-05-16 01:57:00,
2013-05-15 22:02:00,50.9,49.3,29.68,WNW,290,0.0,1.0,94,0.00,,,0.00,meteohub,2013-05-16 02:02:00,
2013-05-15 22:07:00,50.7,48.7,29.68,WNW,290,0.0,1.0,93,0.00,,,0.00,meteohub,2013-05-16 02:07:00,
2013-05-15 22:12:00,50.5,48.6,29.68,WNW,290,0.0,1.0,93,0.00,,,0.00,meteohub,2013-05-16 02:12:00,
2013-05-15 22:17:00,50.5,48.6,29.68,WNW,290,2.0,2.0,93,0.00,,,0.00,meteohub,2013-05-16 02:17:00,
2013-05-15 22:22:00,50.5,48.9,29.68,WNW,290,0.0,2.0,94,0.00,,,0.00,meteohub,2013-05-16 02:22:00,
2013-05-15 22:28:00,50.4,48.7,29.67,WNW,290,0.0,2.0,94,0.00,,,0.00,meteohub,2013-05-16 02:28:00,
2013-05-15 22:33:00,50.2,48.6,29.67,WNW,290,0.0,2.0,94,0.00,,,0.00,meteohub,2013-05-16 02:33:00,
2013-05-15 22:38:00,50.2,48.6,29.67,WNW,290,0.0,1.0,94,0.00,,,0.00,meteohub,2013-05-16 02:38:00,
2013-05-15 22:43:00,50.0,48.4,29.67,WNW,290,0.0,1.0,94,0.00,,,0.00,meteohub,2013-05-16 02:43:00,
2013-05-15 22:49:00,49.8,48.2,29.66,WNW,290,0.0,1.0,94,0.00,,,0.00,meteohub,2013-05-16 02:49:00,
2013-05-15 22:54:00,49.6,48.0,29.67,WNW,290,0.0,1.0,94,0.00,,,0.00,meteohub,2013-05-16 02:54:00,
2013-05-15 23:00:00,49.6,48.0,29.66,WNW,290,0.0,0.0,94,0.00,,,0.00,meteohub,2013-05-16 03:00:00,
2013-05-15 23:05:00,49.5,47.8,29.66,WNW,290,0.0,0.0,94,0.00,,,0.00,meteohub,2013-05-16 03:05:00,
2013-05-15 23:10:00,49.3,47.7,29.66,WNW,290,0.0,0.0,94,0.00,,,0.00,meteohub,2013-05-16 03:10:00,
2013-05-15 23:15:00,49.3,47.7,29.66,WNW,290,0.0,0.0,94,0.00,,,0.00,meteohub,2013-05-16 03:15:00,
2013-05-15 23:20:00,49.1,47.5,29.66,WNW,290,0.0,1.0,94,0.00,,,0.00,meteohub,2013-05-16 03:20:00,
2013-05-15 23:26:00,48.9,47.3,29.66,WNW,290,0.0,1.0,94,0.00,,,0.00,meteohub,2013-05-16 03:26:00,
2013-05-15 23:32:00,48.7,47.1,29.66,WNW,290,0.0,1.0,94,0.00,,,0.00,meteohub,2013-05-16 03:32:00,
2013-05-15 23:37:00,48.6,46.9,29.66,WNW,290,0.0,1.0,94,0.00,,,0.00,meteohub,2013-05-16 03:37:00,
2013-05-15 23:42:00,48.6,46.9,29.66,WNW,290,0.0,0.0,94,0.00,,,0.00,meteohub,2013-05-16 03:42:00,
2013-05-15 23:47:00,48.4,46.8,29.66,WNW,290,0.0,0.0,94,0.00,,,0.00,meteohub,2013-05-16 03:47:00,
2013-05-15 23:53:00,48.4,46.9,29.66,WNW,290,0.0,1.0,95,0.00,,,0.00,meteohub,2013-05-16 03:53:00,
2013-05-15 23:58:00,48.4,46.9,29.66,WNW,290,0.0,1.0,95,0.00,,,0.00,meteohub,2013-05-16 03:58:00,